Station OLCN6 - Olcott Harbor, NY Image indicating link to RSS feed of recent meteorological observations for station OLCN6


Conditions at OLCN6 as of
(5:00 pm EDT)
2100 GMT on 07/20/2024:
     

Click on the graph icon in the table below to see a time series plot of the last five days of that observation.

5-day plot - Wind Direction Wind Direction (WDIR): W ( 270 deg true )
5-day plot - Wind Speed Wind Speed (WSPD): 8.0 kts
5-day plot - Wind Gust Wind Gust (GST): 9.9 kts
5-day plot - Atmospheric Pressure Atmospheric Pressure (PRES):30.04 in
5-day plot - Pressure Tendency Pressure Tendency (PTDY):-0.04 in ( Falling )
5-day plot - Air Temperature Air Temperature (ATMP): 77.5 °F
5-day plot - Wind Speed at 10 Meters Wind Speed at 10 meters (WSPD10M): 7.8 kts
5-day plot - Wind Speed at 20 Meters Wind Speed at 20 meters (WSPD20M): 7.8 kts
5-day plot -  Wind Speed, Wind Gust and Atmospheric Pressure Combined plot of Wind Speed, Gust, and Air Pressure
Previous observations
TIME
(EDT)
5-day plot - Wind Direction
WDIR
 
5-day plot - Wind Speed
WSPD
kts
5-day plot - Wind Gust
GST
kts
5-day plot - Wave Height
WVHT
ft
5-day plot - Dominant Wave Period
DPD
sec
5-day plot - Average Wave Period
APD
sec
5-day plot - Mean Wave Direction
MWD
 
5-day plot - Atmospheric Pressure
PRES
in
5-day plot - Pressure Tendency
PTDY
in
5-day plot - Air Temperature
ATMP
°F
5-day plot - Water Temperature
WTMP
°F
5-day plot - Dew Point
DEWP
°F
5-day plot - Salinity
SAL
psu
5-day plot - Visibility
VIS
nmi
5-day plot - Tide (above MLLW)
TIDE
ft
2024-07-20 04:50 pm W 8.9 9.9----30.04- 77.5-----
2024-07-20 04:40 pm W 8.9 11.1----30.04- 77.0-----
2024-07-20 04:30 pm W 8.0 9.9----30.04- 76.8-----
2024-07-20 04:20 pm W 7.0 8.0----30.05- 76.3-----
2024-07-20 04:10 pm W 7.0 8.9----30.05- 76.1-----
2024-07-20 04:00 pm W 7.0 8.9----30.05-0.03 75.9-----
2024-07-20 03:50 pm W 6.0 8.0----30.05- 75.9-----
2024-07-20 03:40 pm W 7.0 8.9----30.06- 75.7-----
2024-07-20 03:30 pm W 8.0 8.9----30.06- 75.9-----
2024-07-20 03:20 pm W 7.0 8.0----30.06- 75.6-----
2024-07-20 03:10 pm W 7.0 7.0----30.07- 75.2-----
2024-07-20 03:00 pm W 7.0 7.0----30.07-0.02 74.8-----
2024-07-20 02:50 pm W 7.0 7.0----30.07- 74.5-----
2024-07-20 02:40 pmWNW 7.0 8.0----30.07- 74.3-----
2024-07-20 02:30 pmWNW 7.0 8.9----30.07- 74.1-----
2024-07-20 02:20 pmWNW 8.9 9.9----30.07- 74.1-----
2024-07-20 02:10 pmWNW 9.9 11.1----30.08- 73.9-----
2024-07-20 02:00 pmWNW 8.9 9.9----30.08- 73.9-----
2024-07-20 01:50 pmWNW 9.9 11.1----30.08- 73.9-----
2024-07-20 01:40 pmWNW 9.9 12.0----30.08- 73.9-----
2024-07-20 01:30 pmWNW 11.1 12.0----30.08- 73.8-----
2024-07-20 01:20 pmWNW 11.1 12.0----30.08- 73.6-----
2024-07-20 01:10 pmWNW 11.1 13.0----30.08- 73.6-----
2024-07-20 01:00 pm W 11.1 13.0----30.08-0.02 73.2-----
2024-07-20 12:50 pm W 11.1 12.0----30.08- 73.2-----
2024-07-20 12:40 pm W 12.0 14.0----30.09- 73.0-----
2024-07-20 12:30 pm W 13.0 14.0----30.09- 72.9-----
2024-07-20 12:20 pm W 12.0 14.0----30.09- 72.7-----
2024-07-20 12:00 pm W 11.1 13.0----30.09-0.03 72.7-----
2024-07-20 11:50 am W 13.0 14.0----30.08- 72.7-----
2024-07-20 11:40 am W 11.1 14.0----30.08- 72.3-----
2024-07-20 11:30 am W 12.0 13.0----30.09- 72.1-----
2024-07-20 11:20 am W 12.0 13.0----30.09- 71.8-----
2024-07-20 11:10 am W 11.1 13.0----30.09- 71.4-----
2024-07-20 10:00 am W 8.9 9.9----30.10-0.01 69.8-----
2024-07-20 09:50 am W 8.0 9.9----30.10- 69.6-----
2024-07-20 09:40 am W 8.0 9.9----30.10- 69.4-----
2024-07-20 09:30 am W 8.0 8.9----30.11- 69.4-----
2024-07-20 09:20 am W 6.0 8.9----30.11- 69.3-----
2024-07-20 09:10 am W 8.0 8.9----30.11- 69.3-----
2024-07-20 09:00 am W 5.1 7.0----30.12+0.01 69.1-----
2024-07-20 08:50 am SW 4.1 7.0----30.12- 68.5-----
2024-07-20 08:40 am SW 6.0 7.0----30.12- 68.2-----
2024-07-20 08:30 am SW 6.0 7.0----30.12- 67.6-----
2024-07-20 08:20 am SW 4.1 7.0----30.12- 66.9-----
2024-07-20 08:10 amSSW 5.1 7.0----30.12- 66.4-----
2024-07-20 08:00 am SW 6.0 8.0----30.12+0.02 65.8-----
2024-07-20 07:50 amSSW 5.1 7.0----30.12- 65.3-----
2024-07-20 07:40 amSSW 5.1 7.0----30.12- 64.9-----
2024-07-20 07:30 amSSW 5.1 7.0----30.12- 64.2-----
2024-07-20 07:20 amSSW 4.1 7.0----30.12- 63.3-----
2024-07-20 07:10 amSSW 5.1 7.0----30.11- 62.8-----
2024-07-20 07:00 am S 7.0 8.9----30.11+0.01 62.8-----
2024-07-20 06:40 am S 7.0 8.9----30.11- 62.1-----
2024-07-20 06:30 am S 6.0 8.9----30.11- 61.5-----
2024-07-20 06:20 am S 5.1 7.0----30.11- 61.3-----
2024-07-20 06:10 amSSW 5.1 8.9----30.11- 61.2-----
2024-07-20 06:00 amSSW 6.0 7.0----30.11+0.00 61.2-----
2024-07-20 05:50 amSSW 5.1 7.0----30.10- 61.5-----
2024-07-20 05:40 amSSW 5.1 7.0----30.11- 61.7-----
2024-07-20 05:30 amSSW 5.1 8.0----30.10- 61.7-----
2024-07-20 05:20 amSSW 6.0 8.0----30.10- 61.5-----
2024-07-20 05:10 amSSW 6.0 8.0----30.10- 61.5-----
2024-07-20 05:00 amSSW 5.1 7.0----30.10-0.02 61.5-----
2024-07-20 04:50 amSSW 6.0 8.0----30.10- 61.7-----
2024-07-20 04:40 am S 6.0 8.9----30.10- 61.9-----
2024-07-20 04:30 amSSW 7.0 8.0----30.10- 62.2-----
2024-07-20 04:20 amSSW 5.1 7.0----30.10- 62.2-----
2024-07-20 04:10 amSSW 6.0 8.9----30.10- 62.2-----
2024-07-20 04:00 am S 7.0 9.9----30.10-0.02 62.2-----
2024-07-20 03:50 am S 6.0 8.0----30.10- 63.1-----
2024-07-20 03:40 amSSW 4.1 6.0----30.10- 63.7-----
2024-07-20 03:30 amSSW 5.1 8.0----30.10- 63.1-----
2024-07-20 03:20 amSSW 6.0 8.0----30.11- 63.0-----
2024-07-20 03:10 amSSW 5.1 7.0----30.11- 63.3-----
2024-07-20 03:00 amSSW 6.0 7.0----30.11-0.02 63.0-----
2024-07-20 02:50 am S 7.0 8.9----30.12- 62.8-----
2024-07-20 02:40 am S 6.0 9.9----30.12- 62.8-----
2024-07-20 02:30 am S 5.1 7.0----30.12- 63.5-----
2024-07-20 02:20 amSSW 5.1 6.0----30.12- 64.8-----
2024-07-20 02:10 amSSW 4.1 5.1----30.12- 64.4-----
2024-07-20 02:00 amSSW 4.1 5.1----30.12-0.01 64.2-----
2024-07-20 01:50 amSSW 2.9 5.1----30.12- 64.2-----
2024-07-20 01:40 amSSW 2.9 6.0----30.13- 65.1-----
2024-07-20 01:20 amSSW 5.1 8.0----30.13- 65.5-----
2024-07-20 01:10 amSSW 6.0 8.9----30.13- 65.7-----
2024-07-20 01:00 amSSW 7.0 8.9----30.12+0.00 66.0-----
2024-07-20 12:50 amSSW 6.0 8.9----30.13- 66.0-----
2024-07-20 12:40 amSSW 6.0 8.0----30.13- 65.7-----
2024-07-20 12:30 amSSW 6.0 8.0----30.13- 65.5-----
2024-07-20 12:20 amSSW 6.0 8.0----30.13- 65.5-----
2024-07-20 12:10 amSSW 6.0 8.0----30.13- 65.8-----
2024-07-20 12:00 amSSW 6.0 8.0----30.13+0.03 66.0-----
2024-07-19 11:50 pmSSW 6.0 8.0----30.13- 65.7-----
2024-07-19 11:40 pmSSW 6.0 8.0----30.13- 66.0-----
2024-07-19 11:30 pmSSW 5.1 8.9----30.13- 66.7-----
2024-07-19 11:20 pmSSW 4.1 7.0----30.13- 67.1-----
2024-07-19 11:10 pmSSW 5.1 8.0----30.13- 67.3-----
2024-07-19 11:00 pmSSW 5.1 8.0----30.13+0.02 67.5-----
2024-07-19 10:50 pmSSW 6.0 8.0----30.13- 67.6-----
2024-07-19 10:40 pmSSW 6.0 8.9----30.13- 68.0-----
2024-07-19 10:30 pm SW 6.0 8.0----30.12- 68.0-----
2024-07-19 10:20 pmSSW 6.0 8.0----30.12- 68.0-----
2024-07-19 10:10 pmSSW 5.1 7.0----30.12- 68.4-----
2024-07-19 10:00 pmSSW 5.1 7.0----30.12- 68.7-----
2024-07-19 09:50 pm S 5.1 8.0----30.11- 68.9-----
2024-07-19 09:40 pmSSW 6.0 7.0----30.11- 69.3-----
2024-07-19 09:30 pm S 5.1 6.0----30.11- 69.4-----
2024-07-19 09:20 pm S 5.1 7.0----30.11- 70.0-----
2024-07-19 09:10 pm S 4.1 5.1----30.11- 70.3-----
2024-07-19 09:00 pm S 2.9 5.1----30.10-0.03 70.9-----
2024-07-19 08:50 pm S 4.1 6.0----30.11- 71.4-----
2024-07-19 08:40 pm S 4.1 6.0----30.10- 72.1-----
2024-07-19 08:30 pm S 4.1 5.1----30.10- 72.9-----
2024-07-19 08:20 pmSSW 2.9 5.1----30.11- 73.6-----
2024-07-19 08:00 pm S 2.9 5.1----30.11-0.03 74.8-----
2024-07-19 07:50 pmSSW 4.1 6.0----30.11- 74.8-----
2024-07-19 07:40 pmSSW 2.9 5.1----30.11- 75.2-----
2024-07-19 07:30 pm SW 2.9 4.1----30.11- 75.6-----
2024-07-19 07:20 pm SW 1.9 4.1----30.12- 75.6-----
2024-07-19 07:10 pmWSW 2.9 6.0----30.12- 75.4-----
2024-07-19 06:00 pm W 7.0 8.0----30.13-0.03 73.6-----
2024-07-19 05:50 pm W 7.0 8.0----30.13- 73.2-----
2024-07-19 05:40 pm W 6.0 8.9----30.13- 73.0-----
2024-07-19 05:30 pm W 7.0 8.0----30.13- 72.9-----
2024-07-19 05:20 pm W 7.0 8.9----30.14- 72.9-----
2024-07-19 05:10 pm W 8.0 8.9----30.14- 72.5-----
2024-07-19 05:00 pm W 8.0 8.9----30.14-0.04 72.3-----
2024-07-19 04:50 pm W 8.9 12.0----30.15- 72.3-----